�������l�o���
Date,Time,MP-1(��Sv/h),MP-2(��Sv/h),MP-3(��Sv/h),MP-4(��Sv/h),MP-5(��Sv/h),MP-6(��Sv/h),MP-7(��Sv/h),MP-8(��Sv/h),����,����(m/s),���J
2018/12/23,00:00,0.777,1.157,0.815,1.484,1.054,0.450,0.797,0.754,�k�k��,6.1,��
2018/12/23,00:10,0.777,1.161,0.815,1.484,1.054,0.451,0.796,0.755,�k��,5.7,��
2018/12/23,00:20,0.778,1.160,0.815,1.483,1.054,0.452,0.796,0.755,�k��,5.2,��
2018/12/23,00:30,0.776,1.159,0.815,1.483,1.055,0.450,0.796,0.753,�k��,5.5,��
2018/12/23,00:40,0.776,1.159,0.815,1.483,1.054,0.451,0.797,0.754,�k��,4.9,��
2018/12/23,00:50,0.777,1.159,0.814,1.484,1.053,0.452,0.796,0.756,�k��,5.0,��
2018/12/23,01:00,0.779,1.160,0.816,1.482,1.054,0.451,0.796,0.755,�k�k��,5.0,��
2018/12/23,01:10,0.778,1.159,0.814,1.483,1.054,0.451,0.796,0.753,�k�k��,5.1,��
2018/12/23,01:20,0.777,1.158,0.813,1.481,1.055,0.450,0.796,0.753,�k�k��,4.9,��
2018/12/23,01:30,0.778,1.159,0.815,1.483,1.055,0.451,0.796,0.755,�k�k��,5.6,��
2018/12/23,01:40,0.777,1.159,0.815,1.484,1.054,0.450,0.796,0.753,�k�k��,6.0,��
2018/12/23,01:50,0.778,1.159,0.816,1.485,1.054,0.450,0.796,0.754,�k�k��,6.1,��
2018/12/23,02:00,0.776,1.157,0.814,1.482,1.052,0.450,0.795,0.753,�k�k��,6.0,��
2018/12/23,02:10,0.776,1.160,0.814,1.485,1.054,0.450,0.795,0.754,�k�k��,6.0,��
2018/12/23,02:20,0.775,1.157,0.815,1.483,1.056,0.450,0.795,0.755,�k�k��,5.4,��
2018/12/23,02:30,0.777,1.158,0.814,1.482,1.054,0.450,0.796,0.754,�k�k��,5.5,��
2018/12/23,02:40,0.777,1.157,0.813,1.484,1.055,0.452,0.795,0.754,�k��,5.4,��
2018/12/23,02:50,0.777,1.157,0.813,1.484,1.052,0.452,0.795,0.753,�k��,4.7,��
2018/12/23,03:00,0.778,1.156,0.817,1.483,1.052,0.451,0.795,0.755,�k��,4.6,��
2018/12/23,03:10,0.776,1.158,0.815,1.483,1.053,0.450,0.794,0.755,�k��,4.9,��
2018/12/23,03:20,0.777,1.156,0.813,1.482,1.054,0.450,0.796,0.754,�k�k��,4.4,��
2018/12/23,03:30,0.776,1.158,0.814,1.481,1.054,0.451,0.795,0.754,�k��,4.8,��
2018/12/23,03:40,0.774,1.159,0.815,1.483,1.053,0.451,0.798,0.753,�k��,4.5,��
2018/12/23,03:50,0.776,1.157,0.815,1.481,1.051,0.451,0.795,0.755,�k��,4.8,��
2018/12/23,04:00,0.776,1.158,0.813,1.483,1.054,0.452,0.797,0.753,�k��,4.8,��
2018/12/23,04:10,0.776,1.161,0.813,1.484,1.053,0.452,0.795,0.755,�k�k��,5.1,��
2018/12/23,04:20,0.778,1.157,0.813,1.483,1.053,0.451,0.794,0.754,�k�k��,5.1,��
2018/12/23,04:30,0.776,1.159,0.813,1.482,1.051,0.451,0.797,0.754,�k�k��,4.7,��
2018/12/23,04:40,0.775,1.158,0.815,1.483,1.053,0.453,0.795,0.754,�k�k��,4.9,��
2018/12/23,04:50,0.776,1.157,0.814,1.479,1.053,0.451,0.795,0.754,�k��,5.3,��
2018/12/23,05:00,0.773,1.157,0.814,1.481,1.053,0.449,0.795,0.756,�k��,5.3,��
2018/12/23,05:10,0.777,1.159,0.813,1.482,1.052,0.450,0.797,0.753,�k��,4.9,��
2018/12/23,05:20,0.775,1.158,0.814,1.481,1.052,0.451,0.795,0.754,�k��,4.7,��
2018/12/23,05:30,0.775,1.158,0.814,1.484,1.054,0.449,0.794,0.754,�k��,4.7,��
2018/12/23,05:40,0.777,1.155,0.816,1.481,1.053,0.450,0.794,0.754,�k��,4.2,��
2018/12/23,05:50,0.775,1.156,0.815,1.482,1.052,0.451,0.794,0.754,�k��,4.0,��
2018/12/23,06:00,0.776,1.155,0.814,1.483,1.052,0.451,0.796,0.756,���k��,3.7,��
2018/12/23,06:10,0.776,1.155,0.814,1.481,1.052,0.451,0.795,0.755,���k��,3.6,��
2018/12/23,06:20,0.774,1.155,0.814,1.480,1.050,0.450,0.794,0.755,�k��,3.2,��
2018/12/23,06:30,0.777,1.155,0.813,1.481,1.052,0.450,0.795,0.755,�k��,3.3,��
2018/12/23,06:40,0.775,1.156,0.810,1.481,1.050,0.451,0.795,0.755,�k��,3.5,��
2018/12/23,06:50,0.776,1.158,0.813,1.484,1.051,0.451,0.794,0.754,�k��,3.0,��
2018/12/23,07:00,0.776,1.157,0.813,1.483,1.051,0.451,0.795,0.755,�k��,3.1,��
2018/12/23,07:10,0.774,1.155,0.814,1.482,1.052,0.449,0.795,0.753,�k��,2.6,��
2018/12/23,07:20,0.776,1.154,0.815,1.483,1.050,0.450,0.796,0.752,�k��,2.8,��
2018/12/23,07:30,0.775,1.156,0.814,1.481,1.054,0.449,0.793,0.753,�k��,2.6,��
2018/12/23,07:40,0.774,1.155,0.814,1.482,1.051,0.450,0.794,0.755,�k��,1.9,��
2018/12/23,07:50,0.776,1.155,0.814,1.483,1.053,0.450,0.795,0.753,�k�k��,2.0,��
2018/12/23,08:00,0.777,1.157,0.814,1.484,1.053,0.451,0.796,0.756,�k�k��,2.3,��
2018/12/23,08:10,0.775,1.157,0.814,1.481,1.053,0.450,0.796,0.755,�k�k��,2.0,��
2018/12/23,08:20,0.777,1.157,0.815,1.483,1.050,0.451,0.795,0.755,�k�k��,2.2,��
2018/12/23,08:30,0.778,1.159,0.814,1.482,1.054,0.452,0.797,0.754,�k�k��,1.5,��
2018/12/23,08:40,0.778,1.159,0.816,1.482,1.053,0.452,0.798,0.755,�k�k��,1.7,��
2018/12/23,08:50,0.775,1.159,0.815,1.482,1.052,0.452,0.796,0.756,�k��,1.5,��
2018/12/23,09:00,0.777,1.158,0.814,1.483,1.053,0.451,0.797,0.754,�k�k��,1.2,��
2018/12/23,09:10,0.778,1.161,0.815,1.481,1.054,0.451,0.797,0.755,�k,0.8,��
2018/12/23,09:20,0.776,1.159,0.815,1.482,1.053,0.451,0.796,0.755,���쓌,0.8,��
2018/12/23,09:30,0.779,1.159,0.816,1.481,1.054,0.450,0.796,0.755,���쓌,2.0,��
2018/12/23,09:40,0.777,1.161,0.816,1.482,1.055,0.452,0.797,0.758,��,1.5,��
2018/12/23,09:50,0.779,1.157,0.816,1.482,1.055,0.453,0.796,0.756,��,1.4,��
2018/12/23,10:00,0.779,1.158,0.817,1.485,1.055,0.453,0.796,0.755,��,2.5,��
2018/12/23,10:10,0.780,1.157,0.815,1.482,1.055,0.452,0.797,0.756,�k��,1.5,��
2018/12/23,10:20,0.780,1.160,0.815,1.487,1.056,0.451,0.794,0.756,��쓌,0.6,��
2018/12/23,10:30,0.781,1.156,0.816,1.485,1.056,0.453,0.795,0.756,���k��,0.8,��
2018/12/23,10:40,0.780,1.159,0.817,1.485,1.056,0.452,0.796,0.758,-,CALM,��
2018/12/23,10:50,0.780,1.159,0.817,1.484,1.057,0.453,0.793,0.757,-,CALM,��
2018/12/23,11:00,0.780,1.159,0.817,1.487,1.057,0.452,0.798,0.758,-,CALM,��
2018/12/23,11:10,0.781,1.159,0.818,1.485,1.056,0.453,0.796,0.758,��,0.9,��
2018/12/23,11:20,0.782,1.158,0.819,1.488,1.058,0.453,0.796,0.755,-,CALM,��
2018/12/23,11:30,0.781,1.162,0.818,1.487,1.056,0.453,0.797,0.757,�쓌,1.7,��
2018/12/23,11:40,0.780,1.163,0.819,1.486,1.056,0.453,0.796,0.756,���쓌,0.9,��
2018/12/23,11:50,0.782,1.161,0.819,1.485,1.058,0.452,0.797,0.756,�쓌,2.2,��
2018/12/23,12:00,0.780,1.160,0.816,1.486,1.056,0.454,0.796,0.756,�쓌,2.5,��
2018/12/23,12:10,0.780,1.160,0.818,1.488,1.058,0.453,0.794,0.757,�쓌,2.9,��
2018/12/23,12:20,0.783,1.161,0.820,1.486,1.056,0.456,0.797,0.754,�쓌,2.6,��
2018/12/23,12:30,0.782,1.160,0.820,1.486,1.055,0.455,0.796,0.758,�쓌,3.2,��
2018/12/23,12:40,0.781,1.161,0.820,1.487,1.054,0.455,0.797,0.756,�쓌,3.0,��
2018/12/23,12:50,0.781,1.161,0.820,1.485,1.054,0.456,0.798,0.757,���쓌,2.0,��
2018/12/23,13:00,0.782,1.160,0.819,1.486,1.057,0.455,0.797,0.755,�쓌,2.0,��
2018/12/23,13:10,0.781,1.163,0.820,1.487,1.054,0.454,0.795,0.758,�쓌,2.8,��
2018/12/23,13:20,0.782,1.162,0.820,1.486,1.056,0.455,0.796,0.758,�쓌,2.8,��
2018/12/23,13:30,0.783,1.161,0.819,1.485,1.055,0.456,0.798,0.756,�쓌,3.4,��
2018/12/23,13:40,0.784,1.164,0.817,1.490,1.058,0.456,0.798,0.757,��쓌,4.7,��
2018/12/23,13:50,0.782,1.163,0.818,1.483,1.058,0.454,0.797,0.758,��쓌,4.6,��
2018/12/23,14:00,0.782,1.165,0.820,1.486,1.056,0.456,0.797,0.758,��쓌,4.8,��
2018/12/23,14:10,0.782,1.164,0.819,1.487,1.056,0.456,0.797,0.758,��쓌,4.2,��
2018/12/23,14:20,0.781,1.165,0.819,1.488,1.056,0.456,0.798,0.758,��,4.7,��
2018/12/23,14:30,0.781,1.164,0.818,1.487,1.056,0.455,0.799,0.758,��,4.6,��
2018/12/23,14:40,0.783,1.162,0.818,1.486,1.055,0.455,0.798,0.757,��,4.4,��
2018/12/23,14:50,0.782,1.165,0.818,1.485,1.056,0.456,0.799,0.757,��,4.5,��
2018/12/23,15:00,0.782,1.165,0.820,1.485,1.056,0.454,0.799,0.755,��쐼,5.8,�L
2018/12/23,15:10,0.784,1.164,0.818,1.484,1.056,0.453,0.798,0.756,��쐼,6.4,�L
2018/12/23,15:20,0.783,1.168,0.818,1.483,1.056,0.455,0.798,0.757,��쐼,4.7,��
2018/12/23,15:30,0.782,1.166,0.821,1.487,1.062,0.455,0.798,0.758,��쐼,4.5,��
2018/12/23,15:40,0.784,1.165,0.819,1.487,1.057,0.456,0.798,0.756,��쐼,4.6,��
2018/12/23,15:50,0.783,1.165,0.818,1.488,1.059,0.455,0.799,0.756,��쐼,3.8,��
2018/12/23,16:00,0.782,1.163,0.820,1.486,1.059,0.455,0.798,0.757,��쐼,4.1,��
2018/12/23,16:10,0.782,1.165,0.815,1.487,1.059,0.454,0.797,0.756,��쐼,4.7,��
2018/12/23,16:20,0.781,1.165,0.820,1.486,1.060,0.455,0.799,0.757,��쐼,4.2,��
2018/12/23,16:30,0.783,1.164,0.819,1.488,1.058,0.455,0.798,0.757,�쐼,3.6,��
2018/12/23,16:40,0.782,1.163,0.817,1.488,1.060,0.456,0.799,0.756,�쐼,2.9,��
2018/12/23,16:50,0.782,1.164,0.819,1.488,1.060,0.456,0.799,0.759,���쐼,2.2,�L
2018/12/23,17:00,0.784,1.162,0.818,1.487,1.058,0.456,0.799,0.758,��,1.9,�L
2018/12/23,17:10,0.781,1.165,0.819,1.487,1.060,0.455,0.798,0.758,�k��,2.8,�L
2018/12/23,17:20,0.781,1.163,0.819,1.488,1.059,0.455,0.797,0.757,�k��,3.6,�L
2018/12/23,17:30,0.783,1.159,0.818,1.486,1.056,0.457,0.796,0.758,���k��,3.3,�L
2018/12/23,17:40,0.779,1.159,0.820,1.484,1.056,0.458,0.797,0.756,��,2.0,�L
2018/12/23,17:50,0.782,1.157,0.819,1.486,1.053,0.457,0.798,0.757,���쐼,1.7,�L
2018/12/23,18:00,0.783,1.154,0.818,1.486,1.054,0.457,0.795,0.756,�k��,1.1,�L
2018/12/23,18:10,0.780,1.152,0.817,1.481,1.053,0.458,0.796,0.757,�k��,1.5,�L
2018/12/23,18:20,0.780,1.152,0.820,1.484,1.054,0.455,0.796,0.756,���k��,1.5,�L
2018/12/23,18:30,0.779,1.153,0.818,1.484,1.052,0.457,0.794,0.753,���k��,1.1,�L
2018/12/23,18:40,0.778,1.151,0.815,1.481,1.050,0.457,0.796,0.753,�k�k��,2.0,�L
2018/12/23,18:50,0.778,1.150,0.814,1.483,1.049,0.456,0.797,0.754,�k�k��,3.7,�L
2018/12/23,19:00,0.779,1.151,0.814,1.481,1.049,0.455,0.796,0.753,�k��,4.7,�L
2018/12/23,19:10,0.779,1.152,0.816,1.479,1.050,0.455,0.796,0.756,�k�k��,4.4,�L
2018/12/23,19:20,0.776,1.149,0.811,1.479,1.048,0.455,0.795,0.753,�k�k��,4.5,��
2018/12/23,19:30,0.775,1.151,0.814,1.480,1.050,0.454,0.794,0.753,�k�k��,4.9,�L
2018/12/23,19:40,0.776,1.150,0.813,1.480,1.048,0.454,0.796,0.754,�k�k��,4.8,�L
2018/12/23,19:50,0.774,1.150,0.812,1.482,1.049,0.453,0.796,0.753,�k�k��,5.8,��
2018/12/23,20:00,0.775,1.148,0.814,1.481,1.048,0.454,0.797,0.754,�k�k��,6.1,��
2018/12/23,20:10,0.774,1.147,0.812,1.480,1.048,0.454,0.796,0.754,�k�k��,6.9,�L
2018/12/23,20:20,0.775,1.147,0.811,1.479,1.046,0.452,0.795,0.752,�k�k��,7.4,�L
2018/12/23,20:30,0.774,1.148,0.811,1.479,1.048,0.452,0.795,0.754,�k�k��,6.6,�L
2018/12/23,20:40,0.775,1.149,0.811,1.479,1.048,0.452,0.795,0.752,�k�k��,6.7,�L
2018/12/23,20:50,0.773,1.146,0.811,1.478,1.047,0.455,0.796,0.753,�k�k��,7.3,��
2018/12/23,21:00,0.772,1.148,0.813,1.477,1.045,0.452,0.795,0.752,�k�k��,7.5,��
2018/12/23,21:10,0.773,1.148,0.813,1.478,1.047,0.451,0.794,0.753,�k�k��,7.0,��
2018/12/23,21:20,0.772,1.147,0.813,1.479,1.046,0.451,0.794,0.753,�k�k��,7.2,��
2018/12/23,21:30,0.775,1.146,0.811,1.477,1.048,0.452,0.794,0.755,�k�k��,7.4,��
2018/12/23,21:40,0.774,1.149,0.812,1.481,1.047,0.452,0.796,0.754,�k�k��,8.0,��
2018/12/23,21:50,0.771,1.146,0.811,1.479,1.049,0.451,0.795,0.752,�k�k��,7.3,��
2018/12/23,22:00,0.772,1.148,0.813,1.478,1.045,0.453,0.795,0.754,�k,5.8,��
2018/12/23,22:10,0.773,1.148,0.812,1.478,1.048,0.451,0.795,0.753,�k�k��,6.9,��
2018/12/23,22:20,0.772,1.147,0.812,1.481,1.048,0.451,0.794,0.752,�k�k��,6.1,��
2018/12/23,22:30,0.773,1.146,0.811,1.477,1.047,0.451,0.795,0.752,�k�k��,6.2,��
2018/12/23,22:40,0.773,1.148,0.810,1.477,1.046,0.452,0.797,0.753,�k�k��,6.1,��
2018/12/23,22:50,0.774,1.146,0.813,1.477,1.046,0.451,0.796,0.754,�k�k��,6.2,��
2018/12/23,23:00,0.772,1.145,0.810,1.479,1.044,0.451,0.796,0.751,�k��,6.5,��
2018/12/23,23:10,0.772,1.146,0.812,1.478,1.046,0.452,0.795,0.754,�k��,7.0,��
2018/12/23,23:20,0.773,1.145,0.809,1.477,1.045,0.450,0.795,0.753,�k��,8.2,��
2018/12/23,23:30,0.773,1.145,0.811,1.480,1.047,0.452,0.793,0.754,�k��,10.2,��
2018/12/23,23:40,0.771,1.147,0.812,1.479,1.045,0.451,0.797,0.753,���k��,8.5,��
2018/12/23,23:50,0.773,1.146,0.810,1.481,1.047,0.452,0.796,0.752,���k��,7.3,��
